SCP
0 0 0 0 0 0 0 0 0 0 0 0 0 0 0 0 0 0 0 0 0 0 0 0 0 0 0 0 0 0 0 0 0 0 0 0 0 0 0 0 0 0 0 0 0 0 0 0 0
0 0 0 0 0 0 0 0 0 0 0 0 0 0 0 0 0 0 0 0 0 0 0 0 0 0 0 0 0 0 0 0 0 0 0 0 0 0 0 0 0 0 0 0 0 0 0 0 0
0 0 0 0 0 0 0 0 0 0 0 0 0 0 0 0 0 0 0 0 0 0 0 0 0 0 0 0 0 0 0 0 0 0 0 0 0 0 0 0 0 0 0 0 0 0 0 0 0
0 0 0 0 0 0 0 0 0 0 0 0 0 0 0 0 0 0 0 0 0 0 0 0 0 0 0 0 0 0 0 0 0 0 0 0 0 0 0 0 0 0 0 0 0 0 0 0 0
0 0 0 0 0 0 0 0 0 0 0 0 0 0 0 0 0 0 0 0 0 0 0 0 0 0 0 0 0 0 0 0 0 0 0 0 0 0 0 0 0 0 0 0 0 0 0 0 0
0 0 0 0 0 0 0 0 0 0 0 0 0 0 0 0 0 0 0 0 0 0 0 0 0 0 0 0 0 0 0 0 0 0 0 0 0 0 0 0 0 0 0 0 0 0 0 0 0
0 0 0 0 0 0 0 0 0 0 0 0 0 0 0 0 0 0 0 0 0 0 0 0 0 0 0 0 0 0 0 0 0 0 0 0 0 0 0 0 0 0 0 0 0 0 0 0 0
0 0 0 0 0 0 0 0 0 0 0 0 0 0 0 0 0 0 0 0 0 0 0 0 0 0 0 0 0 0 0 0 0 0 0 0 0 0 0 0 0 0 0 0 0 0 0 0 0
0 0 0 0 0 0 0 0 0 0 0 0 0 0 0 0 0 0 0 0 0 0 0 0 0 0 0 0 0 0 0 0 0 0 0 0 0 0 0 0 0 0 0 0 0 0 0 0 0
0 0 0 0 0 0 0 0 0 0 0 0 0 0 0 0 0 0 0 0 0 0 0 0 0 0 0 0 0 0 0 0 0 0 0 0 0 0 0 0 0 0 0 0 0 0 0 0 0
0 0 0 0 0 0 0 0 0 0 0 0 0 0 0 0 0 0 0 0 0 0 0 0 0 0 0 0 0 0 0 0 0 0 0 0 0 0 0 0 0 0 0 0 0 0 0 0 0
0 0 0 0 0 0 0 0 0 0 0 0 0 0 0 0 0 0 0 0 0 0 0 0 0 0 0 0 0 0 0 0 0 0 0 0 0 0 0 0 0 0 0 0 0 0 0 0 0
0 0 0 0 0 0 0 0 0 0 0 0 0 0 0 0 0 0 0 0 0 0 0 0 0 0 0 0 0 0 0 0 0 0 0 0 0 0 0 0 0 0 0 0 0 0 0 0 0
0 0 0 0 0 0 0 0 0 0 0 0 0 0 0 0 0 0 0 0 0 0 0 0 0 0 0 0 0 0 0 0 0 0 0 0 0 0 0 0 0 0 0 0 0 0 0 0 0
0 0 0 0 0 0 0 0 0 0 0 0 0 0 0 0 0 0 0 0 0 0 0 0 0 0 0 0 0 0 0 0 0 0 0 0 0 0 0 0 0 0 0 0 0 0 0 0 0
0 0 0 0 0 0 0 0 0 0 0 0 0 0 0 0 0 0 0 0 0 0 0 0 0 0 0 0 0 0 0 0 0 0 0 0 0 0 0 0 0 0 0 0 0 0 0 0 0
0 0 0 0 0 0 0 0 0 0 0 0 0 0 0 0 0 0 0 0 0 0 0 0 0 0 0 0 0 0 0 0 0 0 0 0 0 0 0 0 0 0 0 0 0 0 0 0 0
0 0 0 0 0 0 0 0 0 0 0 0 0 0 0 0 0 0 0 0 0 0 0 0 0 0 0 0 0 0 0 0 0 0 0 0 0 0 0 0 0 0 0 0 0 0 0 0 0
0 0 0 0 0 0 0 0 0 0 0 0 0 0 0 0 0 0 0 0 0 0 0 0 0 0 0 0 0 0 0 0 0 0 0 0 0 0 0 0 0 0 0 0 0 0 0 0 0
0 0 0 0 0 0 0 0 0 0 0 0 0 0 0 0 0 0 0 0 0 0 0 0 0 0 0 0 0 0 0 0 0 0 0 0 0 0 0 0 0 0 0 0 0 0 0 0 0
0 0 0 0 0 0 0 0 0 0 0 0 0 0 0 0 0 0 0 0 0 0 0 0 0 0 0 0 0 0 0 0 0 0 0 0 0 0 0 0 0 0 0 0 0 0 0 0 0
0 0 0 0 0 0 0 0 0 0 0 0 0 0 0 0 0 0 0 0 0 0 0 0 0 0 0 0 0 0 0 0 0 0 0 0 0 0 0 0 0 0 0 0 0 0 0 0 0
0 0 0 0 0 0 0 0 0 0 0 0 0 0 0 0 0 0 0 0 0 0 0 0 0 0 0 0 0 0 0 0 0 0 0 0 0 0 0 0 0 0 0 0 0 0 0 0 0
0 0 0 0 0 0 0 0 0 0 0 0 0 0 0 0 0 0 0 0 0 0 0 0 0 0 0 0 0 0 0 0 0 0 0 0 0 0 0 0 0 0 0 0 0 0 0 0 0
0 0 0 0 0 0 0 0 0 0 0 0 0 0 0 0 0 0 0 0 0 0 0 0 0 0 0 0 0 0 0 0 0 0 0 0 0 0 0 0 0 0 0 0 0 0 0 0 0
0 0 0 0 0 0 0 0 0 0 0 0 0 0 0 0 0 0 0 0 0 0 0 0 0 0 0 0 0 0 0 0 0 0 0 0 0 0 0 0 0 0 0 0 0 0 0 0 0
0 0 0 0 0 0 0 0 0 0 0 0 0 0 0 0 0 0 0 0 0 0 0 0 0 0 0 0 0 0 0 0 0 0 0 0 0 0 0 0 0 0 0 0 0 0 0 0 0
0 0 0 0 0 0 0 0 0 0 0 0 0 0 0 0 0 0 0 0 0 0 0 0 0 0 0 0 0 0 0 0 0 0 0 0 0 0 0 0 0 0 0 0 0 0 0 0 0
0 0 0 0 0 0 0 0 0 0 0 0 0 0 0 0 0 0 0 0 0 0 0 0 0 0 0 0 0 0 0 0 0 0 0 0 0 0 0 0 0 0 0 0 0 0 0 0 0
0 0 0 0 0 0 0 0 0 0 0 0 0 0 0 0 0 0 0 0 0 0 0 0 0 0 0 0 0 0 0 0 0 0 0 0 0 0 0 0 0 0 0 0 0 0 0 0 0
Wind_Speed
10 6 3 2 3 6 7 3 1 0 3 6 8 7 7 7 6 4 3 4 4 7 10 12 10 10 9 9 10 8 5 4 3 4 4 3 3 0 0 1 4 5 5 6 8 9 10 9 7
8 4 1 2 4 7 5 2 1 4 10 11 7 5 6 3 2 3 3 6 4 8 9 10 10 10 11 11 9 7 5 4 4 5 5 4 5 4 3 1 3 4 5 5 6 8 8 10 9
5 4 2 1 2 5 2 3 7 11 10 6 4 2 3 2 3 4 4 6 6 8 8 8 9 11 12 11 10 7 5 5 5 6 7 5 6 5 5 2 3 3 3 4 4 5 7 8 9
4 3 2 4 3 3 5 7 10 12 6 4 6 4 1 4 4 4 4 7 6 7 8 9 8 10 10 10 10 8 5 4 5 6 7 7 7 5 5 5 4 2 1 4 5 5 6 7 8
1 3 5 5 4 3 6 7 7 9 9 7 6 5 2 4 3 2 4 6 5 7 7 9 8 9 10 9 8 7 6 5 5 5 7 8 9 7 5 6 5 1 2 4 6 7 7 7 8
2 3 8 8 6 6 8 4 6 8 9 7 7 9 2 4 2 2 4 5 4 6 6 7 7 7 9 10 10 10 9 7 5 4 7 9 9 5 6 2 4 2 3 5 7 8 10 8 8
5 5 11 10 9 8 4 2 5 9 9 5 8 7 2 7 6 1 3 4 5 6 7 7 7 8 7 7 7 8 9 6 5 4 4 4 6 8 7 2 1 3 5 5 9 10 11 10 10
3 5 10 10 9 7 2 4 6 8 9 7 5 5 3 9 5 1 3 4 5 6 7 7 6 7 8 8 7 6 6 6 4 3 2 2 2 2 3 4 3 6 8 8 9 11 12 12 12
4 8 12 13 9 5 1 6 7 7 10 9 7 7 6 6 3 3 4 6 7 7 8 8 7 6 7 6 6 7 7 6 5 5 4 3 5 4 4 4 4 7 9 10 11 11 13 12 11
10 12 14 10 9 7 4 8 10 10 13 13 9 8 6 7 6 6 6 7 9 10 10 9 9 8 7 6 6 7 6 7 6 5 4 3 4 3 5 6 5 9 10 11 12 13 13 11 9
14 17 12 10 8 7 8 11 8 12 15 12 13 13 11 12 9 8 7 7 9 9 9 10 10 9 8 6 5 4 4 5 5 6 5 3 3 3 4 4 5 6 6 7 8 9 8 8 8
15 16 13 11 7 7 10 10 14 15 20 18 17 15 12 11 10 9 8 5 8 8 8 8 10 9 9 8 6 5 5 5 4 5 5 4 3 3 4 4 5 5 5 6 7 7 9 10 11
19 15 14 12 10 10 11 13 16 19 21 18 17 13 12 11 11 9 6 3 4 5 6 7 9 10 9 8 7 6 5 5 4 3 4 4 3 4 5 5 6 6 6 7 7 8 9 10 11
17 17 14 14 13 11 13 16 11 22 16 15 13 12 9 7 8 6 4 3 2 2 3 5 8 10 10 9 7 5 4 4 3 3 3 4 4 4 5 6 6 6 6 7 7 9 9 9 10
17 14 16 16 13 12 9 16 15 14 9 8 6 4 2 3 4 4 5 4 3 4 5 5 5 8 9 8 7 4 2 2 2 2 3 4 4 5 5 5 6 6 7 8 8 9 9 9 10
19 16 18 17 13 9 8 15 8 1 3 4 3 1 3 4 5 5 5 4 3 5 6 7 2 4 7 6 5 2 1 0 1 2 2 3 4 5 5 5 5 7 6 6 7 8 8 9 10
19 19 20 16 12 11 12 13 7 5 11 11 4 3 4 6 7 8 6 5 5 6 7 8 6 6 6 6 4 5 4 4 4 4 5 6 6 6 4 4 6 6 5 6 7 7 8 9 9
17 18 14 15 11 10 13 14 12 10 9 7 4 5 6 7 8 7 7 6 6 7 8 10 9 9 9 8 7 7 8 8 8 8 9 10 9 9 7 6 8 8 7 8 9 10 10 10 10
18 19 15 13 7 7 13 14 13 14 9 8 7 8 9 9 8 7 7 8 9 11 12 12 12 10 8 7 7 8 9 8 9 9 11 10 10 10 9 7 8 8 8 9 10 10 11 11 11
18 17 16 12 6 7 13 16 16 13 8 8 10 12 12 11 10 9 9 10 11 12 13 14 13 13 10 8 8 8 8 8 8 8 9 10 11 10 9 9 7 7 7 8 10 11 10 10 11
18 17 15 10 5 6 10 16 11 5 4 5 9 12 13 13 12 11 11 11 12 12 12 13 14 13 11 10 8 7 8 7 7 7 7 9 10 10 9 8 8 8 7 8 9 10 10 10 10
20 13 9 6 1 4 3 7 7 8 6 8 12 12 12 13 13 11 11 11 11 11 11 13 13 12 11 9 7 9 7 7 7 6 6 7 8 9 9 9 8 8 7 8 8 9 9 10 9
15 11 7 3 3 7 7 8 6 4 8 12 14 14 13 12 13 12 11 11 10 9 10 11 12 12 11 10 9 9 8 7 5 5 6 6 6 7 8 8 7 8 7 8 9 9 9 8 9
15 14 7 3 2 9 8 9 7 4 4 12 16 15 14 13 12 12 11 10 9 9 9 10 11 11 10 11 10 10 9 7 6 6 6 5 5 5 8 9 8 8 8 8 9 9 9 9 9
16 15 5 6 7 5 3 8 8 2 4 12 19 19 17 15 14 13 12 10 10 9 9 8 10 10 10 10 10 9 8 7 7 6 6 6 6 6 8 9 8 8 8 8 9 8 8 9 9
13 13 6 5 5 5 4 7 3 1 1 7 16 19 18 16 14 14 13 11 10 9 8 8 9 9 9 9 8 8 7 5 5 6 6 6 5 5 7 7 7 8 9 9 9 8 8 8 9
9 9 4 2 2 2 5 4 2 3 4 8 14 19 18 17 15 14 13 11 10 9 8 7 8 8 7 7 7 7 7 6 5 5 5 4 5 5 6 8 9 9 9 10 10 8 10 10 10
11 13 7 5 5 5 3 4 3 3 2 8 16 20 19 17 15 14 12 11 9 9 8 7 7 7 7 7 6 5 6 5 5 5 5 5 5 6 8 8 9 9 9 10 10 9 9 11 11
15 12 7 6 2 3 3 4 3 3 3 4 12 18 18 17 16 14 12 11 10 9 8 7 7 7 6 6 5 5 5 4 4 4 5 5 6 7 8 9 10 10 10 11 10 11 11 12 13
11 11 13 8 6 3 3 1 4 3 3 2 9 15 17 17 14 13 13 12 11 10 8 7 7 6 6 5 5 5 3 3 3 4 6 6 7 7 8 9 10 11 11 11 12 12 12 14 15
Wind_Direction
323 326 330 273 243 240 230 195 257 150 332 327 306 286 304 306 328 19 78 123 109 136 151 161 165 162 161 144 139 144 158 175 206 235 231 230 235 137 342 77 59 33 13 22 8 350 358 357 7
326 317 330 304 262 239 207 190 233 320 321 312 286 244 255 280 10 59 103 134 130 139 153 161 154 155 153 150 149 158 182 199 228 254 287 273 237 192 179 182 69 42 26 16 8 334 341 343 346
312 311 314 285 254 271 315 10 341 322 313 304 286 244 279 352 49 41 74 136 142 143 153 137 140 153 157 164 162 167 191 209 238 263 292 308 268 233 176 165 119 76 27 344 350 336 321 323 332
326 277 215 252 264 257 280 320 335 325 330 314 309 286 213 31 33 44 104 147 150 147 156 134 155 161 162 161 160 172 189 219 247 267 281 291 292 251 173 148 136 116 2 330 327 328 318 311 312
288 265 252 241 261 276 288 304 315 314 325 318 314 308 333 62 24 70 143 159 158 152 156 148 168 170 167 165 164 176 198 215 241 264 273 296 294 266 230 168 163 140 307 312 310 303 298 300 301
247 251 251 252 257 283 295 302 300 310 321 323 326 308 36 57 14 102 157 161 158 153 161 166 173 194 183 185 186 183 202 213 228 253 281 321 345 309 275 192 168 221 271 301 310 295 290 285 286
252 245 262 265 266 280 287 285 303 320 307 330 331 290 115 59 28 103 162 152 154 158 170 178 184 194 203 205 199 196 206 205 223 245 278 326 19 31 17 78 241 270 279 293 307 310 307 305 298
260 249 247 248 254 267 290 286 310 305 307 321 301 291 360 21 19 207 179 169 161 170 184 191 200 205 209 204 202 216 213 196 207 234 284 348 328 352 348 315 313 311 302 298 295 299 301 304 304
216 234 237 238 241 247 212 297 310 295 283 286 276 276 339 349 350 238 214 196 188 191 196 202 210 218 227 228 190 210 210 197 203 213 204 239 258 269 286 299 299 284 284 285 284 284 285 295 289
214 229 235 239 247 258 267 295 306 294 283 280 264 257 287 314 309 290 260 228 208 203 197 202 213 218 226 231 221 220 204 206 209 215 229 253 279 298 311 296 272 270 269 272 270 274 279 278 275
217 233 234 233 237 264 280 285 290 286 282 282 291 298 307 307 300 287 281 245 223 216 205 203 209 217 222 228 229 220 209 208 211 219 229 246 269 275 274 281 272 273 263 273 275 273 271 280 284
220 229 235 237 237 250 270 287 284 277 275 282 286 295 293 287 293 295 296 254 220 218 224 216 213 214 220 223 223 222 213 207 213 215 222 232 252 272 288 297 301 302 301 300 297 293 290 286 280
220 217 220 237 247 257 270 272 284 278 275 280 281 274 268 287 295 301 301 268 240 233 235 230 222 217 215 218 220 221 223 216 222 231 241 253 272 294 302 302 308 309 305 301 299 296 293 289 285
211 221 226 238 246 253 266 276 279 274 289 295 280 265 281 304 313 305 316 312 288 283 272 259 237 224 213 210 214 215 226 235 237 254 270 282 292 302 309 303 299 304 304 304 303 304 302 295 291
216 214 222 234 241 250 269 270 256 278 305 292 294 282 320 356 352 356 348 341 356 358 350 324 273 232 214 205 207 213 219 247 265 294 303 295 292 295 296 300 311 320 324 320 316 312 307 300 297
207 215 224 223 223 238 233 261 258 244 273 296 332 74 81 61 41 31 8 349 5 10 17 16 11 196 195 190 181 173 135 70 51 22 345 343 342 334 320 323 333 337 332 329 326 324 318 313 310
200 208 218 226 219 225 221 253 235 246 282 281 261 141 118 90 62 43 27 22 26 27 33 46 63 105 132 140 131 105 90 77 67 55 43 42 38 27 16 14 6 355 352 349 342 329 322 313 309
185 202 208 216 207 211 223 242 266 283 272 262 172 151 126 98 70 55 50 55 57 60 65 72 75 90 107 113 110 96 85 73 66 61 58 56 51 44 38 31 17 4 359 355 346 333 328 320 320
197 202 200 202 182 222 249 260 267 280 260 224 181 159 132 106 90 77 70 74 78 73 70 68 70 77 93 99 99 95 91 83 74 63 56 51 44 38 30 18 11 2 355 351 343 337 331 327 330
200 203 207 206 180 243 269 273 273 274 252 223 182 164 145 127 109 90 84 80 77 75 74 74 69 67 70 76 79 87 87 80 73 65 53 45 40 33 26 15 5 358 348 347 345 344 336 332 334
191 196 190 185 168 235 274 270 241 190 182 187 176 160 148 137 126 112 97 87 81 74 71 74 75 74 77 88 97 101 94 80 67 54 47 40 37 31 22 14 2 359 354 351 348 347 339 333 332
193 195 173 152 211 227 276 277 223 204 191 181 168 159 150 139 128 118 109 97 86 81 78 77 77 75 70 72 79 79 73 68 53 45 39 38 33 27 17 11 5 2 358 356 350 349 342 337 335
187 168 187 173 266 276 235 255 243 182 209 187 173 164 157 148 135 128 116 106 98 91 85 83 81 75 72 71 71 75 75 71 55 38 33 28 28 25 17 8 7 7 4 358 350 346 344 342 338
147 127 107 96 271 248 220 236 256 187 217 178 173 170 164 156 146 136 127 122 112 103 95 90 87 81 75 74 72 72 71 65 53 35 24 17 18 19 19 7 10 8 1 353 345 342 339 339 336
161 146 134 183 204 220 148 229 257 240 206 177 176 176 173 166 161 153 146 139 128 116 105 99 97 93 87 82 77 75 71 63 49 31 20 12 11 12 9 2 0 358 352 347 341 335 331 332 329
181 179 184 179 185 161 175 236 239 23 211 184 183 176 174 172 169 162 151 147 139 127 118 113 108 102 97 91 84 76 66 56 46 32 19 15 7 359 353 350 350 350 348 344 337 325 326 326 322
168 196 181 81 60 250 198 233 230 185 183 185 184 176 178 176 171 163 157 155 146 134 125 121 120 112 104 97 90 79 67 57 46 33 25 13 1 346 344 348 348 345 341 334 328 323 324 321 316
193 166 171 181 200 226 204 230 205 127 148 178 184 182 177 172 169 165 164 156 145 133 128 127 122 114 109 99 90 83 70 54 39 28 23 7 352 347 341 340 337 332 327 325 323 317 318 313 310
177 173 195 187 213 241 199 147 107 355 337 214 189 184 173 171 172 169 165 155 146 142 142 139 134 131 121 106 97 86 70 48 34 22 11 354 344 341 333 331 325 320 320 322 319 318 314 310 305
199 184 184 189 183 237 301 112 114 346 341 227 181 177 173 172 170 168 163 158 157 155 154 150 145 139 123 109 92 71 54 35 22 10 2 346 340 334 325 317 313 315 320 323 320 315 312 308 306